Location: Crescent
(42.8242°N, 73.7329°W)
Time: 08:24:07
(UTC+00:00)

Vanguard 1 Rocket - Pass Details

Date: 24 February 2026
Orbit: 653 x 4214 km, 34.3° (Epoch: 12 March)

Event Time Altitude Azimuth Distance (km) Brightness Sun altitude
Rises 23:40:34 0° 275° (W) 6,098 13.7 -12.2°
Reaches altitude 10° 23:45:11 10° 263° (W) 5,593 12.9 -13.0°
Maximum altitude 23:58:22 25° 217° (SW) 5,518 11.7 -15.4°
Drops below altitude 10° 00:15:52 10° 173° (S) 7,389 11.9 -18.6°
Sets 00:23:43 0° 161° (SSE) 8,411 12.1 -20.1°
